Wind_Speed
30 30 29 30 30 31 32 33 34 33 32 32 32 32 31 29 29 29 30 30 30 30 30 29 29 29 29 30 30 29 28 27 26 26 26 25 25 24 24 24 23 23 23 23
32 31 31 31 31 31 32 33 34 33 33 33 32 31 31 30 30 30 31 32 31 31 31 31 31 31 31 32 33 32 30 29 29 29 29 28 27 26 26 27 26 26 25 25
32 32 33 32 30 31 31 32 32 33 33 32 32 30 30 30 30 30 30 31 32 33 32 32 32 33 34 34 34 33 33 32 32 32 31 29 29 28 28 28 29 29 27 27
32 32 33 31 30 30 32 33 33 34 34 33 33 32 31 31 31 32 32 31 32 33 33 33 34 34 35 34 34 33 34 34 33 32 30 31 31 29 29 29 29 29 29 29
32 31 32 32 32 32 31 33 33 33 33 34 34 33 33 32 32 33 33 33 33 32 33 34 36 36 35 36 35 35 35 34 34 34 33 32 31 31 31 31 31 31 30 30
32 31 30 30 32 31 31 33 33 33 33 33 33 33 34 33 33 34 34 34 34 34 34 35 35 35 35 36 37 37 36 35 35 35 34 33 32 32 33 33 32 32 31 31
31 31 30 31 30 29 30 31 32 32 32 32 33 33 34 34 34 34 34 34 34 34 35 35 36 36 36 37 37 37 37 37 36 36 35 34 34 34 34 34 33 33 33 33
30 30 30 30 29 30 31 30 30 30 30 31 31 32 33 33 32 33 34 34 34 35 35 36 35 36 37 37 37 38 39 38 38 37 36 36 36 35 35 35 34 34 35 35
30 30 30 30 29 29 30 30 30 30 30 30 30 30 31 31 31 31 31 31 33 34 35 36 35 35 36 37 37 38 38 37 38 38 37 37 36 36 36 36 36 36 36 36
30 30 29 29 29 29 29 29 29 29 30 30 30 30 30 30 30 30 30 31 31 31 32 33 34 35 36 36 37 37 38 38 38 39 38 38 37 37 37 37 37 38 37 37
30 30 30 30 30 30 29 28 28 28 29 29 29 30 30 30 30 31 31 30 30 30 31 32 32 33 34 36 38 39 39 39 39 38 38 38 38 38 38 38 39 39 39 39
29 29 30 29 29 29 29 28 27 27 28 28 29 29 29 30 30 30 30 30 30 31 32 33 33 34 35 36 36 37 38 37 37 37 38 39 40 40 40 40 40 40 40 40
29 29 28 28 28 28 28 28 28 27 27 27 28 29 29 29 30 30 30 31 31 31 32 33 33 34 35 35 36 37 37 37 37 38 37 38 39 40 41 41 40 40 40 40
28 27 27 27 27 27 27 28 28 28 28 28 28 29 29 29 30 30 30 30 31 32 32 32 33 34 35 36 36 36 36 37 38 38 39 39 39 40 40 40 40 40 39 39
26 26 26 26 27 27 28 28 29 28 27 28 28 28 29 29 29 29 30 30 30 31 32 32 33 33 34 35 35 35 36 37 37 38 39 39 39 39 40 40 40 40 39 40
24 24 25 26 26 27 27 27 28 28 27 27 27 27 28 28 29 29 30 30 29 29 29 29 30 31 32 34 35 35 35 36 37 38 39 39 39 38 38 38 38 38 39 39
23 23 24 24 25 26 27 26 27 27 27 26 26 26 26 27 27 27 27 27 27 27 27 27 28 29 30 31 33 33 34 34 35 36 37 38 37 36 36 37 37 36 37 37
22 23 23 24 24 24 25 26 26 26 26 26 26 26 25 25 25 25 26 26 26 27 27 27 27 28 29 30 31 32 32 32 33 34 34 35 35 34 34 34 33 34 34 34
21 21 22 22 23 23 23 24 24 25 25 24 24 25 25 24 23 24 24 25 25 25 25 26 27 28 29 29 31 31 31 31 31 32 32 32 32 33 32 32 32 32 32 32
18 18 18 19 20 20 21 21 21 22 22 23 22 22 22 22 21 22 22 23 22 22 22 24 25 26 27 28 28 29 29 29 29 29 29 29 29 30 30 30 31 31 31 31
14 15 16 16 17 17 18 18 19 20 20 21 21 21 20 20 20 20 20 20 20 21 22 23 23 24 25 26 26 27 27 27 26 26 27 27 28 29 29 30 30 30 30 30
13 13 14 15 15 15 16 16 17 17 18 18 19 19 19 19 20 20 20 21 21 21 21 22 22 23 24 24 25 25 25 24 23 24 26 27 27 28 28 28 28 28 29 29
13 13 13 13 13 13 13 14 14 15 15 16 17 17 18 18 19 19 20 19 19 20 20 21 21 22 22 23 23 23 23 22 22 23 24 25 26 26 26 27 27 28 28 28
12 12 12 12 12 11 11 12 12 13 14 15 16 16 17 17 18 18 18 18 18 19 19 20 20 20 20 21 21 21 21 21 21 22 23 23 23 24 25 25 25 26 25 25
10 10 11 11 11 10 11 12 12 13 13 14 14 15 15 15 16 16 16 16 17 18 18 19 19 19 19 20 20 20 20 21 21 22 22 22 22 23 23 23 24 23 23 22
8 8 9 10 11 11 12 12 13 13 12 13 13 13 13 13 14 15 15 16 16 17 17 18 18 19 19 19 20 20 21 21 22 22 22 22 23 23 22 22 22 21 21 22
7 7 8 9 10 10 10 10 10 10 11 11 12 12 13 13 13 14 15 15 15 16 17 17 17 18 18 19 19 19 20 20 20 21 21 22 22 22 22 22 22 22 22 23
Wind_Direction
253 253 254 254 253 253 252 252 253 256 257 256 259 259 257 256 257 255 254 253 253 252 252 252 256 259 259 262 263 265 265 266 269 271 272 273 274 278 276 275 275 276 274 271
255 254 254 254 253 253 254 254 253 255 257 256 256 256 255 255 256 257 256 255 253 250 250 252 255 258 260 261 262 262 262 263 265 269 270 270 272 276 276 274 275 276 272 272
256 255 255 254 252 252 253 254 253 253 254 256 256 256 256 256 256 257 257 257 254 250 250 253 255 257 259 259 259 259 261 262 265 268 269 270 271 271 272 273 274 274 272 272
256 255 255 255 254 254 253 254 254 255 256 256 257 257 257 257 257 257 257 258 255 254 252 253 256 258 256 257 258 259 261 262 264 267 269 269 268 268 270 272 272 273 272 274
256 256 257 257 255 254 254 255 255 256 256 256 257 257 256 256 257 256 256 257 258 256 254 255 256 256 256 255 255 259 262 264 266 267 269 271 270 269 271 272 272 272 272 275
256 255 256 259 258 257 257 257 255 256 258 258 257 258 258 257 257 257 257 257 259 260 259 257 257 257 258 258 257 259 262 264 266 268 269 269 270 271 272 273 272 271 273 274
255 256 257 258 259 258 259 260 259 258 258 259 259 258 260 261 261 262 260 259 258 258 258 257 256 256 256 258 259 258 260 263 267 269 270 269 270 270 271 272 271 272 273 275
253 254 255 258 259 258 260 261 261 260 259 258 259 260 260 260 261 262 261 258 258 258 257 256 256 255 256 258 258 258 260 263 267 268 269 271 270 269 270 270 271 272 273 274
252 253 255 257 259 259 259 260 260 259 257 257 258 260 260 261 262 261 262 261 259 257 256 257 257 257 257 257 259 260 261 263 266 267 270 270 271 272 271 272 272 272 274 274
251 253 255 257 259 258 259 258 258 258 258 257 259 260 262 261 261 260 261 260 258 256 255 256 255 257 257 259 260 261 262 264 266 266 267 269 271 272 273 272 273 273 273 274
251 253 255 257 258 257 257 259 260 260 260 259 259 260 260 261 260 259 258 257 256 255 255 256 257 258 259 260 260 261 262 264 265 266 267 269 271 272 273 273 273 272 272 272
253 254 256 257 257 258 258 259 260 259 259 259 260 259 260 260 260 260 258 256 256 256 257 257 258 259 260 261 262 265 266 267 268 268 269 270 271 271 271 272 273 273 273 273
253 254 256 257 258 257 257 257 258 259 259 258 258 259 260 260 259 258 257 255 256 258 259 259 258 259 261 263 265 266 266 268 269 269 270 271 270 271 271 271 273 273 272 272
253 253 255 256 254 253 254 254 255 257 259 259 257 258 259 259 260 259 258 259 259 261 262 261 261 262 264 266 267 267 267 268 269 270 271 271 270 271 271 272 273 272 271 271
252 252 253 253 252 253 254 255 255 256 258 260 259 260 260 260 260 261 261 261 260 261 263 263 262 265 266 268 268 268 269 269 270 270 271 271 270 270 270 271 271 271 271 271
250 252 251 252 254 255 256 256 256 257 258 258 260 262 262 263 263 263 263 263 262 262 263 264 264 266 268 269 269 270 270 270 271 271 272 271 271 270 271 271 272 272 271 271
250 251 252 254 256 257 258 259 259 260 259 261 262 263 263 264 264 265 265 265 265 265 263 263 265 267 269 271 273 274 274 274 275 273 272 271 271 272 272 272 272 273 273 274
250 251 252 253 255 257 259 260 260 261 261 262 263 262 263 264 264 265 264 265 264 263 264 265 268 270 272 274 275 277 277 277 278 279 277 274 272 273 274 274 274 275 275 274
251 251 253 254 256 258 261 262 261 260 261 262 263 262 263 263 264 264 265 265 266 265 265 267 269 271 273 275 277 279 278 278 279 280 280 278 275 274 274 274 276 276 275 275
251 253 256 256 257 259 261 262 261 260 260 260 260 261 262 263 263 263 265 267 266 268 269 271 273 275 277 279 280 280 278 278 278 279 280 279 277 277 275 275 275 276 276 276
256 257 257 259 261 262 262 262 261 261 260 258 259 261 263 263 264 266 268 269 271 273 275 276 278 280 282 284 284 282 281 280 279 279 280 280 279 279 278 277 276 275 274 275
259 262 263 264 266 263 262 264 263 263 262 261 261 262 264 265 267 269 272 273 275 276 278 279 281 282 284 286 286 286 285 285 285 284 284 281 280 280 279 278 277 275 274 274
260 265 267 268 268 266 265 265 264 263 263 263 263 264 265 266 268 271 275 276 277 279 281 282 284 285 286 287 287 287 288 289 288 288 288 286 283 281 280 280 279 278 276 275
264 265 264 266 267 264 261 262 262 262 263 265 265 265 267 270 272 273 274 276 277 279 282 285 287 288 287 288 288 288 289 290 290 290 290 289 288 286 283 282 280 279 278 275
259 258 258 260 260 260 264 265 266 269 271 272 270 269 271 273 273 274 275 277 279 281 283 285 286 289 291 292 290 289 290 290 290 290 291 291 289 288 287 284 283 282 281 280
255 258 260 259 262 264 269 272 271 271 273 274 272 271 273 276 277 277 277 278 280 282 284 286 287 289 291 293 292 291 291 290 290 291 291 290 289 289 287 286 285 284 286 287
260 263 262 263 267 272 276 277 274 275 277 278 277 277 278 280 281 282 284 285 286 287 289 291 292 294 296 297 297 296 295 294 294 293 292 291 290 289 288 288 288 286 286 288
Height
5817 5818 5819 5820 5822 5823 5825 5827 5829 5831 5833 5835 5837 5838 5840 5842 5843 5845 5846 5848 5849 5850 5851 5852 5853 5854 5855 5855 5855 5856 5856 5856 5856 5856 5855 5855 5855 5854 5853 5853 5852 5852 5851 5851
5808 5809 5810 5811 5813 5815 5816 5818 5820 5822 5824 5826 5827 5829 5831 5832 5834 5835 5837 5838 5839 5841 5842 5843 5844 5845 5846 5846 5847 5848 5848 5849 5849 5849 5848 5848 5847 5847 5846 5846 5845 5844 5844 5843
5800 5801 5801 5803 5805 5807 5808 5809 5812 5813 5816 5817 5818 5820 5822 5824 5825 5826 5827 5828 5829 5830 5831 5833 5834 5836 5836 5837 5838 5839 5839 5840 5840 5841 5840 5840 5839 5839 5838 5838 5837 5837 5836 5835
5791 5792 5793 5797 5797 5798 5800 5801 5803 5805 5806 5808 5809 5811 5813 5814 5816 5817 5817 5818 5819 5820 5821 5823 5825 5826 5827 5828 5829 5830 5831 5831 5832 5832 5831 5831 5830 5830 5830 5829 5829 5828 5828 5827
5782 5783 5785 5787 5788 5789 5791 5793 5794 5795 5796 5798 5800 5802 5803 5805 5806 5807 5807 5808 5809 5810 5811 5813 5815 5816 5816 5818 5819 5821 5821 5822 5822 5822 5822 5822 5821 5821 5820 5820 5819 5819 5818 5818
5773 5775 5777 5779 5779 5780 5783 5784 5785 5786 5788 5789 5791 5792 5794 5794 5795 5796 5797 5798 5799 5800 5801 5802 5803 5805 5806 5808 5809 5811 5812 5812 5813 5813 5813 5812 5812 5811 5811 5810 5810 5809 5809 5809
5764 5765 5768 5769 5770 5772 5775 5775 5776 5777 5778 5780 5781 5782 5783 5784 5784 5785 5785 5786 5787 5789 5789 5791 5792 5794 5795 5797 5799 5800 5801 5802 5802 5803 5802 5802 5801 5800 5800 5800 5799 5799 5799 5799
5755 5758 5761 5759 5761 5764 5764 5765 5766 5767 5768 5770 5771 5772 5772 5773 5773 5774 5774 5775 5776 5778 5779 5780 5781 5783 5785 5786 5788 5790 5790 5791 5792 5792 5791 5791 5791 5790 5789 5789 5789 5788 5788 5788
5747 5750 5750 5751 5752 5754 5755 5756 5757 5758 5759 5760 5761 5762 5762 5762 5763 5764 5764 5765 5766 5768 5769 5771 5772 5773 5775 5776 5778 5779 5780 5780 5781 5781 5781 5781 5780 5780 5779 5779 5779 5778 5777 5776
5738 5740 5741 5742 5743 5745 5746 5747 5748 5749 5750 5751 5752 5753 5753 5753 5754 5754 5755 5755 5757 5758 5760 5761 5762 5763 5765 5766 5767 5768 5770 5770 5770 5770 5770 5769 5769 5769 5768 5768 5767 5766 5766 5765
5728 5731 5732 5733 5734 5736 5737 5738 5739 5740 5741 5741 5742 5743 5743 5744 5744 5745 5746 5746 5748 5749 5751 5751 5753 5754 5755 5756 5757 5758 5758 5758 5759 5758 5758 5758 5757 5757 5756 5756 5755 5755 5754 5752
5720 5722 5723 5725 5726 5727 5728 5729 5730 5730 5731 5732 5732 5733 5733 5734 5734 5735 5736 5738 5739 5740 5741 5742 5744 5744 5745 5746 5746 5746 5747 5747 5747 5746 5746 5746 5745 5745 5744 5744 5743 5741 5740 5740
5710 5712 5714 5715 5716 5718 5719 5720 5720 5721 5722 5722 5723 5723 5724 5724 5725 5726 5727 5728 5730 5730 5731 5732 5733 5734 5735 5734 5735 5735 5735 5735 5735 5735 5734 5734 5733 5732 5732 5731 5730 5729 5728 5727
5701 5703 5704 5706 5707 5708 5710 5711 5711 5712 5713 5713 5714 5714 5715 5715 5716 5717 5718 5719 5720 5721 5721 5722 5723 5724 5724 5723 5724 5724 5724 5724 5723 5723 5722 5722 5721 5720 5719 5717 5717 5716 5715 5715
5692 5694 5696 5697 5698 5699 5701 5702 5703 5704 5704 5705 5705 5706 5706 5707 5708 5708 5709 5710 5711 5711 5712 5712 5713 5713 5713 5713 5713 5713 5712 5712 5711 5711 5710 5709 5708 5707 5706 5705 5704 5703 5702 5702
5684 5685 5687 5688 5690 5691 5692 5693 5694 5695 5696 5696 5697 5697 5698 5698 5699 5700 5700 5701 5701 5702 5702 5702 5703 5703 5703 5702 5702 5701 5701 5700 5699 5698 5697 5696 5695 5694 5693 5692 5691 5690 5690 5689
5675 5677 5679 5680 5682 5682 5683 5684 5685 5686 5687 5688 5688 5689 5689 5690 5691 5691 5691 5691 5691 5692 5692 5693 5693 5693 5693 5692 5691 5690 5689 5688 5687 5686 5684 5683 5682 5681 5681 5680 5679 5678 5677 5676
5668 5669 5671 5672 5673 5674 5675 5676 5677 5677 5678 5679 5680 5681 5682 5682 5682 5683 5683 5683 5683 5683 5683 5684 5684 5684 5683 5682 5681 5680 5679 5677 5676 5674 5672 5671 5670 5669 5668 5667 5667 5666 5665 5664
5661 5662 5663 5664 5665 5666 5667 5668 5669 5670 5671 5671 5672 5673 5674 5674 5675 5675 5675 5675 5675 5675 5675 5675 5675 5674 5673 5672 5671 5670 5668 5666 5665 5663 5661 5660 5659 5657 5657 5656 5655 5654 5653 5652
5655 5655 5656 5657 5658 5659 5660 5660 5661 5662 5663 5664 5664 5665 5666 5667 5667 5667 5667 5667 5667 5667 5667 5667 5666 5665 5664 5663 5661 5660 5658 5656 5655 5653 5651 5650 5648 5647 5646 5645 5644 5643 5642 5642
5650 5650 5651 5651 5652 5653 5653 5653 5654 5655 5656 5657 5658 5659 5659 5660 5660 5660 5660 5660 5660 5659 5659 5659 5658 5657 5655 5654 5652 5650 5648 5647 5645 5643 5641 5640 5638 5637 5636 5634 5633 5633 5632 5631
5645 5646 5646 5647 5647 5647 5648 5648 5649 5649 5650 5651 5651 5652 5653 5653 5654 5653 5653 5653 5653 5652 5652 5651 5650 5649 5647 5645 5644 5642 5640 5638 5636 5634 5633 5631 5629 5628 5626 5624 5623 5622 5622 5621
5642 5642 5642 5643 5643 5643 5643 5643 5644 5644 5645 5645 5646 5646 5646 5647 5647 5647 5646 5646 5646 5645 5644 5644 5642 5641 5639 5638 5636 5634 5632 5630 5628 5626 5625 5623 5621 5619 5617 5616 5614 5613 5612 5612
5638 5639 5639 5639 5639 5640 5640 5640 5640 5640 5640 5641 5641 5641 5641 5641 5641 5640 5640 5640 5640 5639 5638 5637 5636 5634 5632 5630 5628 5627 5625 5623 5621 5619 5617 5615 5613 5611 5610 5608 5606 5604 5603 5602
5635 5635 5635 5636 5636 5636 5636 5636 5636 5636 5636 5636 5636 5636 5636 5636 5635 5635 5635 5634 5633 5633 5632 5630 5629 5627 5626 5624 5622 5620 5618 5616 5614 5612 5610 5608 5606 5604 5603 5600 5599 5597 5595 5594
5632 5632 5632 5633 5633 5633 5633 5633 5633 5632 5632 5632 5632 5631 5631 5631 5631 5630 5629 5628 5627 5626 5625 5624 5622 5621 5619 5617 5615 5613 5611 5609 5607 5605 5603 5601 5599 5597 5596 5594 5592 5590 5589 5587
5630 5630 5630 5630 5630 5630 5630 5629 5629 5629 5629 5628 5628 5627 5627 5627 5626 5625 5624 5623 5622 5620 5619 5617 5616 5614 5612 5610 5608 5606 5604 5602 5600 5598 5596 5594 5593 5591 5589 5588 5586 5584 5582 5581